Погода в Иловке

Россия / Белгородская область     50°42′26″N   38°37′58″E
темп.,
°C
ветер,
м/с
пор.,
м/с
влажн.,
%
обл.,
%
осадки,
мм/ч
давл.,
гПа
погр.,
м
25 февраля, чт
чт2500:00−11ююз5994100 0.6 1036433
03:00−10ююз51194100 1.0 1034435
06:00−10юз51186100 0.1 1031367
09:00−7юз61193100 0.2 1029359
12:00−4юз61192100 0.1 1027446
15:00−1юз71394100 0.2 1024395
18:00+1зюз81595100 0.4 1022460
21:00+2з61298100 0.8 1021311
26 февраля, пт
пт2600:00+2з61399100 0.5 1020311
03:00+2зсз51199100 0.6 1020248
06:00+2зсз41199100 0.2 1019251
09:00+2з51099100 0.2 1019262
12:00+2з611100100 0.0 1018337
15:00+3зюз71398100 0.0 1016458
18:00+3з71498100 0.1 1014448
21:00+3з61397100 0.3 1014374
27 февраля, сб
сб2700:00+2з51295100 0.0 1012414
03:00+1з51095100 0.0 1012348
06:00+1з51095100 0.0 1010359
09:00+1з51198100 0.0 1009464
12:00+3зсз6108599 0.1 1009860
15:00+1з51096100 0.1 1009559
18:00+1зсз61097100 0.1 1009509
21:00+1зсз4998100 0.1 1009444
28 февраля, вс
вс2800:000сз5997100 0.1 1011531
03:000с589297 0.3 1013468
06:00−3с6107697 0.0 1014714
09:00−5с577793 0.0 1017581
12:00−4с576971 0.0 1018659
15:00−3ссз576960 0.0 1019719
18:00−4ссз587778 0.0 1020668
21:00−4с577789 0.0 1023720
1 марта, пн
пн100:00−5с5778100 0.1 1024754
03:00−5с4778100 0.1 1026669
06:00−6с488162 0.0 1027595
09:00−5с478358 0.0 1028559
12:00−3ссз467193 0.0 1030786
15:00−1сз356796 0.0 1029797
18:00−2зсз477588 0.0 1028641
21:00−2з497688 0.0 1028562